User: anonymous   Login
Location: Ay?beleni
(36.6500°N, 30.3000°E)
Time: 10:29:14
(UTC+00:00)
Language:

SPACEBEE-64 - Orbit

View from above orbital plane
View from above orbital plane
View from above satellite
View from above satellite

Ground track
Ground track

The orbit data is extracted from the following two-line orbital elements,

1 48627U 21006ET  22228.36584214  .00019009  00000-0  73994-3 0  9999
2 48627  97.2034 274.5950 0012515  52.3670 307.8703 15.25967674 86535
Epoch (UTC): 16 August 2022 08:46:48
Eccentricity: 0.0012515
inclination: 97.2034°
perigee height: 479 km
apogee height: 496 km
right ascension of ascending node: 274.5950°
argument of perigee: 52.3670°
revolutions per day: 15.25967674
mean anomaly at epoch: 307.8703°
orbit number at epoch: 8653

The dashed part of the orbit path shows where the satellite is in the earth's shadow,  

DLR